This demonstration page uses our WeatherBlox Daily Observations layout. Learn more.

Left ArrowRight Arrow

Hourly Observations for November 14, 2020

Temp ( °F °C ) Dew Point ( °F °C ) Humidity (%) Winds ( mph kmh ) Pressure ( in mb ) Visibility ( mi km ) Precip ( " mm )
12:54 am 00:54 Clear 33 0.6 24 -4.4 70 70 S 13 20 29.82 1010 10 16.0934 0 0
1:54 am 01:54 Clear 31 -0.6 24 -4.4 76 76 SSE 9 15 29.77 1008 10 16.0934 0 0
2:54 am 02:54 Clear 32 0 26 -3.3 79 79 SSE 13 20 29.72 1006 10 16.0934 0 0
3:54 am 03:54 Clear 33 0.6 26 -3.3 75 75 S 10 17 29.69 1005 10 16.0934 0 0
4:54 am 04:54 Clear 34 1.1 28 -2.2 79 79 S 12 19 29.66 1004 10 16.0934 0 0
5:54 am 05:54 Clear 35 1.7 28 -2.2 76 76 S 12 19 29.63 1003 10 16.0934 0 0
6:54 am 06:54 Clear 36 2.2 31 -0.6 82 82 S 12 19 29.59 1002 10 16.0934 0 0
7:54 am 07:54 Sunny 36 2.2 31 -0.6 82 82 SSE 8 13 29.58 1002 10 16.0934 0 0
8:54 am 08:54 Sunny 44 6.7 38 3.3 79 79 S 7 11 29.56 1001 10 16.0934 0 0
9:54 am 09:54 Sunny 49 9.4 38 3.3 66 66 SW 14 22 29.54 1000 10 16.0934 0 0
10:54 am 10:54 Sunny 52 11.1 37 2.8 57 57 SSW 14 22 29.49 999 10 16.0934 0 0
11:54 am 11:54 Sunny 54 12.2 36 2.2 51 51 WSW 13 20 29.48 998 10 16.0934 0 0
12:54 pm 12:54 Sunny 53 11.7 35 1.7 51 51 WSW 14 22 29.45 997 10 16.0934 0 0
1:54 pm 13:54 Sunny 53 11.7 35 1.7 51 51 SW 10 17 29.44 997 10 16.0934 0 0
2:54 pm 14:54 Sunny 55 12.8 35 1.7 47 47 WSW 9 15 29.44 997 10 16.0934 0 0
3:54 pm 15:54 Mostly Sunny 54 12.2 34 1.1 47 47 W 9 15 29.47 998 10 16.0934 0 0
4:54 pm 16:54 Mostly Cloudy 53 11.7 35 1.7 51 51 W 3 6 29.49 999 10 16.0934 0 0
5:54 pm 17:54 Mostly Cloudy 49 9.4 35 1.7 59 59 S 3 6 29.52 1000 10 16.0934 0 0
6:54 pm 18:54 Cloudy 55 12.8 34 1.1 45 45 NW 14 22 29.55 1001 10 16.0934 0 0
7:54 pm 19:54 Cloudy with Light Rain 53 11.7 33 0.6 47 47 NNW 21 33 29.6 1002 10 16.0934 0.001 0.001
8:54 pm 20:54 Mostly Clear 49 9.4 31 -0.6 50 50 NW 23 37 29.63 1004 10 16.0934 0.001 0.001
9:54 pm 21:54 Cloudy 46 7.8 32 0 58 58 WNW 31 50 29.7 1006 10 16.0934 0 0
10:41 pm 22:41 Cloudy with Rain 40 4.4 34 1.1 79 79 NW 30 48 29.77 1008 6 9.65604 0.001 0.001
10:54 pm 22:54 Cloudy with Rain 40 4.4 34 1.1 79 79 NW 28 44 29.75 1008 9 14.48406 0.01 0.254
11:31 pm 23:31 Cloudy with Light Rain 39 3.9 34 1.1 82 82 NW 14 22 29.8 1009 10 16.0934 0.03 0.762
11:54 pm 23:54 Cloudy 39 3.9 34 1.1 82 82 W 7 11 29.76 1008 10 16.0934 0.03 0.762

Powered by AerisWeather